Running & Sports

Kids & Family

Fitness & Health

Training


Missing

SNICKERS® MARATHON® Energy Bar marathon, half marathon, and one mile fun run

Sat Mar 01, 2008

Albany, , 31701

Half Marathon Age Group Results Expand Results

                Snickers Marathon Energy Bar Half Marathon
                          03/01/2008   Albany, GA


 MALE OVERALL WINNER
Place O'All No.   Name                       Age City,st              Chiptime Guntime  Pace  
===== ===== ===== ========================== === ==================== ======== ======== ===== 
    1     1  1417 John Sell                   23 Due West SC          01:11:57 01:11:58  5:30 
 FEMALE OVERALL WINNER
Place O'All No.   Name                       Age City,st              Chiptime Guntime  Pace  
===== ===== ===== ========================== === ==================== ======== ======== ===== 
    1     2  1382 Chris Kimbrough             38 Austin TX            01:17:14 01:17:15  5:54 

 MALE AGE GROUP:  19 and Under
Place O'All No.   Name                       Age City,st              Chiptime Guntime  Pace  
===== ===== ===== ========================== === ==================== ======== ======== ===== 
    1    17  1285 Jaymes Turner               15 Ellaville GA         01:35:46 01:35:48  7:19 
    2    82  1011 David Anglin                15 Harleton TX          01:49:59 01:50:25  8:26 
    3    98  1334 Daniel Anglin               14 Longview TX          01:53:32 01:53:58  8:42 
    4   245  1021 Patrick Berg                19 Albany GA            02:23:31 02:24:05 11:00 
    5   356  1299 Tyler Watchorn              18 Eatonton GA          03:05:56 03:06:08 14:13 
 FEMALE AGE GROUP:  19 & Under
Place O'All No.   Name                       Age City,st              Chiptime Guntime  Pace  
===== ===== ===== ========================== === ==================== ======== ======== ===== 
    1    47  1201 Ellery Nash                 18 Dacula GA            01:44:50 01:44:58  8:01 
    2   136  1029 Emily Boyd                  18 Atlanta GA           01:59:29 01:59:51  9:09 
    3   154  1082 Laura Donnan                19 Albany GA            02:03:47 02:04:12  9:29 
    4   190  1159 Amelia Kirbo                18 Bainbridge GA        02:12:05 02:12:44 10:08 
    5   242  1434 Brooke Woodall              16 Sylvester GA         02:23:42 02:23:42 10:58 
    6   260  1322 Maggie Yancey               19 Gordon GA            02:31:40 02:31:57 11:36 
    7   287  1094 Shelley Fallon              17 Americus GA          02:39:12 02:39:56 12:13 
    8   293  1070 Melanie Day                 18 Columbus IN          02:40:52 02:41:41 12:21 
    9   345  1123 Carrie Hawkins              16 Americus GA          02:58:02 02:58:21 13:37 
   10   354  1276 Taylor Templin              15 Andersonville GA     03:03:06 03:03:24 14:00 
   11   355  1199 Jesika Murphy               17 Eatonton GA          03:05:54 03:06:06 14:12 
   12   362  1281 Destiny Tolliver            17 Albany GA            03:10:07 03:10:24 14:32 
 MALE AGE GROUP:  20 - 24
Place O'All No.   Name                       Age City,st              Chiptime Guntime  Pace  
===== ===== ===== ========================== === ==================== ======== ======== ===== 
    1    64  1452 Matthew Noto                21 Auburn AL            01:46:54 01:46:58  8:10 
    2   112  1017 William Barnes              23 Albany GA            01:55:41 01:56:26  8:53 
    3   208  1259 Joshua Staines              24 Leesburg GA          02:14:53 02:15:51 10:22 
    4   249  1151 Elliot Kahan                23 Atlanta GA           02:25:19 02:25:59 11:09 
    5   283  1034 Alex Brueder                22 Dawson GA            02:37:59 02:38:12 12:05 
 FEMALE AGE GROUP:  20 - 24
Place O'All No.   Name                       Age City,st              Chiptime Guntime  Pace  
===== ===== ===== ========================== === ==================== ======== ======== ===== 
    1   135  1062 Michelle Crandall           21 Boone NC             01:59:09 01:59:31  9:08 
    2   148  1305 Anna Wheeler                21 Dawson GA            02:02:11 02:02:24  9:21 
    3   181  1405 Stacia Pape                 20 Tallahassee FL       02:10:19 02:11:12 10:01 
    4   246  1208 Erin Patten                 20 Atlanta GA           02:23:31 02:24:05 11:00 
    5   250  1200 Gaya Myers                  23 Atlanta GA           02:25:19 02:25:59 11:09 
    6   277  1056 Kati Cook                   24 Albany GA            02:36:34 02:36:55 11:59 
 MALE AGE GROUP:  25 - 29
Place O'All No.   Name                       Age City,st              Chiptime Guntime  Pace  
===== ===== ===== ========================== === ==================== ======== ======== ===== 
    1     7  1083 Brian Druck                 27 Quarryville PA       01:28:15 01:28:17  6:45 
    2    10  1410 Clinton Pritchard           27 Atlanta GA           01:31:45 01:31:52  7:01 
    3    27  1177 Clarence Matthews           27 Columbus GA          01:38:25 01:39:14  7:35 
    4    31  1347 Mike Burns                  27 Atlanta GA           01:40:04 01:40:25  7:40 
    5    55  1143 Noah Jansen                 27 Leary GA             01:45:27 01:45:51  8:05 
    6    57  1406 Eric Payne                  26 Fayetteville GA      01:45:19 01:46:15  8:07 
    7    59  1084 Jon Duggan                  28 Augusta GA           01:46:00 01:46:34  8:08 
    8   103  1112 Jeff Hall                   29 Americus GA          01:54:22 01:54:46  8:46 
    9   111  1376 Stephen Humphreys           26 Warner Robins GA     01:55:38 01:56:20  8:53 
   10   132  1088 James Edgemon               29 Americus GA          01:58:45 01:59:08  9:06 
   11   202  1133 Shane Hudson                27 Tifton GA            02:14:18 02:15:11 10:19 
   12   203  1134 Scott Hudson                29 Tifton GA            02:14:18 02:15:12 10:19 
 FEMALE AGE GROUP:  25 - 29
Place O'All No.   Name                       Age City,st              Chiptime Guntime  Pace  
===== ===== ===== ========================== === ==================== ======== ======== ===== 
    1     9  1464 Jacqueline Wachtel          28 New Port Richey FL   01:31:21 01:31:35  7:00 
    2    42  1115 Beth Harding                26 Atlanta GA           01:43:50 01:44:05  7:57 
    3    68  1412 Marni Rakes                 25 Dunedin FL           01:47:31 01:47:38  8:13 
    4    73  1386 Danielle Lavoie             28 Augusta GA           01:47:42 01:48:12  8:16 
    5    94  1427 Susan Whelan                26 Orlando DE           01:52:26 01:52:59  8:38 
    6    99  1125 Suzanne Higgins             29 Lawrenceville GA     01:53:25 01:54:01  8:42 
    7   116  1465 Nora House                  27 Tallahassee FL       01:56:30 01:56:49  8:55 
    8   120  1309 Lindsey White               26 Albany GA            01:56:45 01:56:57  8:56 
    9   145  1074 Dana Dews                   28 Richmond VA          02:01:17 02:01:33  9:17 
   10   149  1232 Ashley Rihm                 28 Snellville GA        02:02:05 02:02:37  9:22 
   11   155  1126 Amanda Hilley               29 Commerce GA          02:04:04 02:04:18  9:30 
   12   157  1142 Johanna Jansen              27 Leary GA             02:04:23 02:04:48  9:32 
   13   218  1446 Mason Duffy                 26 Albany GA            02:18:40 02:18:40 10:35 
   14   227  1090 Jayme Eitner                25 Savannah GA          02:19:00 02:19:41 10:40 
   15   228  1202 Sarah Newton                27 Leesburg GA          02:19:03 02:19:43 10:40 
   16   239  1268 Malissa Stimson             27 Midland GA           02:21:18 02:21:26 10:48 
   17   253  1113 Megan Hamilton              25 Macon GA             02:27:44 02:28:17 11:19 
   18   261  1129 Katie Hornsey               29 Dawsonville GA       02:31:31 02:32:21 11:38 
   19   262  1054 Michelle Collins            27 Leesburg GA          02:31:57 02:32:21 11:38 
   20   285  1244 Andrea Shannon              29 Albany FM            02:39:02 02:39:45 12:12 
   21   313  1192 Kristi Monroe               27 Leesburg GA          02:48:08 02:48:29 12:52 
   22   318  1000 Kristel Baranko             29 Albany GA            02:48:49 02:49:39 12:57 
   23   329  1175 Jennifer Marrero            29 Indian Trail NC      02:53:23 02:54:09 13:18 
   24   332  1353 Erin Degraff                27 Covington GA         02:53:55 02:54:40 13:20 
   25   338  1160 Kelley Kirker               28 Nashville TN         02:55:54 02:56:23 13:28 
   26   352  1289 Ashlie Vinson               27 Atlanta GA           02:59:53 03:00:47 13:48 
   27   377  1063 Estee Creech                26 Leesburg GA          03:20:59 03:20:59 15:21 
 MALE AGE GROUP:  30 - 34
Place O'All No.   Name                       Age City,st              Chiptime Guntime  Pace  
===== ===== ===== ========================== === ==================== ======== ======== ===== 
    1     4  1415 Anthony Russo               33 Atlanta GA           01:23:06 01:23:09  6:21 
    2     5  1178 Matthew McCallum            33 Davenport IA         01:24:38 01:24:42  6:28 
    3    11  1256 Jeff Sparrow                34 Summerville SC       01:34:22 01:34:35  7:13 
    4    23  1118 Eddy Hardison Iv            31 Chicago IL           01:37:08 01:38:05  7:29 
    5    32  1120 Gregory Hartsfield          33 Suwanee GA           01:40:44 01:41:05  7:43 
    6    46  1195 Lee Moss                    32 Bonifay FL           01:44:21 01:44:52  8:00 
    7    70  1344 Bret Bosher                 30 Atlanta GA           01:47:24 01:47:46  8:14 
    8    72  1388 Scott Lindeman              32 Tallahassee FL       01:47:26 01:47:56  8:15 
    9    77  1043 Dwayne Byerly               31 Lubbock TX           01:49:11 01:49:37  8:22 
   10    78  1136 J.R. Hughes                 32 Smyrna GA            01:49:08 01:49:38  8:22 
   11    92  1139 David Ilgenfritz            32 Warner Robins GA     01:52:07 01:52:48  8:37 
   12   158  1157 Paul King                   34 Dothan AL            02:04:13 02:05:10  9:33 
   13   159  1419 Bo Strickland               31 Albany GA            02:04:18 02:05:18  9:34 
   14   176  1064 Jamie Crosby                34 Atlanta GA           02:09:37 02:10:13  9:57 
   15   177  1438 David Yorio                 31 Tallahassee, Fl FL   02:09:28 02:10:22  9:57 
   16   240  1437 Doug Wyatt                  33 Albany GA            02:21:35 02:21:44 10:49 
   17   330  1393 David Marrero               31 Indian Trail NC      02:53:24 02:54:10 13:18 
   18   333  1286 John Vance                  33 Albany GA            02:54:23 02:55:03 13:22 
 FEMALE AGE GROUP:  30 - 34
Place O'All No.   Name                       Age City,st              Chiptime Guntime  Pace  
===== ===== ===== ========================== === ==================== ======== ======== ===== 
    1    29  1255 Myra Sparrow                34 Summerville SC       01:39:44 01:39:58  7:38 
    2    33  1317 Elizabeth Winser            32 Atlanta GA           01:41:09 01:41:26  7:45 
    3    52  1362 Kim Freeman                 30 Phenix City AL       01:44:58 01:45:25  8:03 
    4    80  1278 Carly Thomas                34 Valdosta GA          01:49:41 01:49:52  8:23 
    5    81  1138 Deirdre Hutton              31 Greenville SC        01:49:47 01:49:54  8:24 
    6    90  1189 Katrina Mitchell            34 Atlanta GA           01:51:38 01:52:09  8:34 
    7   122  1327 Janelle Zmierski            31 North Augusta SC     01:56:29 01:57:02  8:56 
    8   131  1119 Wendy Hartley               31 Cumming GA           01:58:48 01:58:52  9:05 
    9   152  1150 Deanna Julian               34 Albany GA            02:03:17 02:03:29  9:26 
   10   153  1149 Christie Jones              30 Cataula GA           02:03:11 02:03:31  9:26 
   11   166  1357 Naomi Embleton              34 Kissimmee FL         02:05:28 02:05:57  9:37 
   12   182  1222 Amy Price                   34 Eufaula AL           02:10:38 02:11:24 10:02 
   13   184  1288 Kristie Varga               34 Buford GA            02:10:56 02:11:32 10:03 
   14   223  1164 Wendy Kutlin                34 Augusta GA           02:18:34 02:19:02 10:37 
   15   233  1212 Mary Pene                   33 Montgomery AL        02:20:20 02:20:37 10:44 
   16   234  1311 Stacey Whitfield            34 Marietta GA          02:20:23 02:20:39 10:44 
   17   263  1333 Claudia Anderson            34 Albany GA            02:31:57 02:32:21 11:38 
   18   267  1069 Kate Davis                  32 Lithia Springs GA    02:33:36 02:34:29 11:48 
   19   268  1324 Natalia Young               33 Lithia Springs GA    02:33:36 02:34:30 11:48 
   20   271  1180 Deane McDaniel              34 Leesburg GA          02:34:37 02:34:59 11:50 
   21   273  1185 Robin Mehler                30 Asheville NC         02:35:33 02:36:24 11:56 
   22   274  1356 Angie Elliott               30 Albany GA            02:35:33 02:36:24 11:56 
   23   296  1374 Suzanne Hogencamp           32 Albany GA            02:42:19 02:42:37 12:25 
   24   309  1316 Erin Willis                 34 Valdosta GA          02:45:46 02:45:57 12:40 
   25   323  1048 Leigh Cannon                33 Dothan AL            02:48:17 02:51:20 13:05 
   26   326  1296 Laurie Walther              30 Leesburg GA          02:50:36 02:51:24 13:05 
   27   339  1016 Angela Ballard              31 Central SC           02:55:54 02:56:24 13:28 
   28   350  1121 Kathryn Hartsfield          31 Suwanee GA           02:59:09 03:00:03 13:45 
   29   365  1032 Holly Bridges               30 Poulan GA            03:10:24 03:11:06 14:35 
   30   367  1287 Aditi Vance                 31 Albany GA            03:11:52 03:12:11 14:40 
  MALE AGE GROUP:  35 - 39
Place O'All No.   Name                       Age City,st              Chiptime Guntime  Pace  
===== ===== ===== ========================== === ==================== ======== ======== ===== 
    1    16  1399 Cary Morgan                 35 Birmingham AL        01:35:36 01:35:40  7:18 
    2    35  1457 Bill Fricks Jr              36 Albany GA            01:40:51 01:41:33  7:45 
    3    40  1226 David Raulerson             35 Black Mountain NC    01:41:37 01:43:25  7:54 
    4    50  1270 Andrew Swan                 39 Winnipeg MB          01:44:07 01:45:08  8:02 
    5    54  1455 John Leonard Jr             39 Altanta GA           01:45:19 01:45:38  8:04 
    6    66  1254 Sam Solomon                 39 Dothan AL            01:47:28 01:47:31  8:13 
    7    83  1224 Jamie Rader                 39 Deland FL            01:50:07 01:50:42  8:27 
    8    89  1422 Brice Thompson              35 Albany GA            01:51:56 01:52:06  8:34 
    9   108  1331 David Nolan                 36 Warner Robins GA     01:55:22 01:55:49  8:51 
   10   109  1239 Marc Schwartz               39 Atlanta GA           01:55:42 01:55:57  8:51 
   11   115  1130 Gabriel Howard              35 Clarksville TN       01:56:07 01:56:31  8:54 
   12   119  1014 Robert Baitis               35 Atlanta GA           01:56:38 01:56:54  8:56 
   13   123  1132 Dave Hronchek               38 Atlanta GA           01:56:48 01:57:04  8:56 
   14   130  1283 Michael Trammell            38 Albany GA            01:58:03 01:58:46  9:04 
   15   142  1284 Tim Trawick                 35 Columbus GA          01:59:54 02:00:53  9:14 
   16   146  1275 Andrew Telles               35 Duluth GA            02:01:23 02:01:34  9:17 
   17   165  1257 John Sparrow                38 Newberry FL          02:05:29 02:05:57  9:37 
   18   167  1443 Carl Sagasser               38 Albany GA            02:05:50 02:06:24  9:39 
   19   175  1210 Michael Patton              35 Albany GA            02:08:50 02:09:18  9:52 
   20   179  1077 Michael Dogan               36 Pittsburgh PA        02:10:15 02:10:30  9:58 
   21   229  1390 Robert Littleton            36 Birmingham AL        02:18:17 02:19:47 10:40 
   22   266  1050 Min Tau Chow                36 Bonaire GA           02:33:21 02:33:53 11:45 
   23   279  1166 Ick Lee                     39 Lawrenceville GA     02:36:49 02:37:12 12:00 
 FEMALE AGE GROUP:  35 - 39
Place O'All No.   Name                       Age City,st              Chiptime Guntime  Pace  
===== ===== ===== ========================== === ==================== ======== ======== ===== 
    1    38  1366 Karen Hamby                 39 Albany GA            01:42:18 01:42:34  7:50 
    2    62  1154 Karen Keegan                35 Norcross GA          01:46:12 01:46:55  8:10 
    3   104  1428 Erin White                  38 Thomasville GA       01:55:24 01:55:31  8:49 
    4   121  1342 Michele Bird                36 Albany GA            01:56:44 01:56:57  8:56 
    5   126  1304 Lori Westphal               38 Tallahassee FL       01:57:03 01:57:25  8:58 
    6   127  1131 Lisa Hronchek               38 Atlanta GA           01:57:14 01:57:29  8:58 
    7   150  1193 Eve Monti                   36 Charlotte MT         02:02:18 02:03:05  9:24 
    8   173  1345 Joellen Brown               39 Grayson GA           02:08:26 02:09:01  9:51 
    9   180  1076 Laura Dixon                 35 Statham GA           02:10:15 02:10:30  9:58 
   10   195  1448 Jami Porter                 36 Cairo GA             02:13:46 02:14:10 10:15 
   11   209  1025 Kelly Blalock               38 Jesup GA             02:15:34 02:16:08 10:24 
   12   224  1389 Katie Link                  35 Nashville TN         02:18:45 02:19:19 10:38 
   13   241  1425 Angela Way                  35 Albany GA            02:22:27 02:22:50 10:54 
   14   244  1091 Caroline Elkins             38 Valdosta GA          02:23:04 02:23:53 10:59 
   15   248  1253 Melissa Smith               35 Albany GA            02:24:33 02:25:33 11:07 
   16   255  1463 Larissa Carpenter           37 Bainbridge GA        02:29:02 02:29:42 11:26 
   17   259  1442 Melinda Sagasser            39 Albany GA            02:31:17 02:31:50 11:36 
   18   269  1105 Renee Garvey                37 Sylvester GA         02:34:01 02:34:39 11:48 
   19   276  1191 Karen Moncrief              38 Leesburg GA          02:36:34 02:36:55 11:59 
   20   281  1323 Marti Yelverton             37 Albany GA            02:37:18 02:37:40 12:02 
   21   286  1282 Michelle Trammell           37 Albany GA            02:39:03 02:39:45 12:12 
   22   294  1456 Jenna Leach                 38 Albany GA            02:42:15 02:42:19 12:24 
   23   304  1092 Margaret Ellis              39 Albany GA            02:44:23 02:45:19 12:37 
   24   306  1229 Stephanie Reyner            37 Statham GA           02:44:47 02:45:26 12:38 
   25   331  1179 Pamela McClurg              38 Augusta GA           02:53:44 02:54:23 13:19 
   26   334  1391 Jaza Marina                 35 Albany GA            02:54:24 02:55:04 13:22 
   27   358  1110 Michele Guerra              35 Albany GA            03:06:15 03:07:04 14:17 
   28   360  1006 Cassandra Smallwood         38 Albany GA            03:07:10 03:07:19 14:18 

  FEMALE MASTERS OVERALL RESULTS
Place O'All No.   Name                       Age City,st              Chiptime Guntime  Pace  
===== ===== ===== ========================== === ==================== ======== ======== ===== 
    1    36  1081 Wendy Donnan                44 Albany GA            01:41:33 01:41:48  7:46 
  MALE MASTERS OVERALL RESULTS
Place O'All No.   Name                       Age City,st              Chiptime Guntime  Pace  
===== ===== ===== ========================== === ==================== ======== ======== ===== 
    1     3  1332 Eddie Nesmith               42 Winter Haven GA      01:21:45 01:21:45  6:15 

 MALE AGE GROUP:  40 - 44
Place O'All No.   Name                       Age City,st              Chiptime Guntime  Pace  
===== ===== ===== ========================== === ==================== ======== ======== ===== 
    1    12  1230 Kris Reyner                 41 Statham GA           01:34:14 01:34:41  7:14 
    2    13  1214 Thomas Phillips             44 Valdosta GA          01:35:10 01:35:15  7:17 
    3    15  1349 David Chaplin               42 Macon GA             01:35:23 01:35:32  7:18 
    4    20  1411 Mark Pumphrey               44 Selma TX             01:37:23 01:37:31  7:27 
    5    21  1430 Wesley Williamson           43 Waverly Hall GA      01:36:46 01:37:34  7:27 
    6    34  1053 Jeffrey Cloutier            40 High Springs FL      01:41:00 01:41:28  7:45 
    7    37  1245 Randy Simpson               41 Waynesville NC       01:41:57 01:42:09  7:48 
    8    43  1301 Ted Welch                   43 Hahira GA            01:43:57 01:44:12  7:57 
    9    65  1381 John Kennedy                40 Monticello FL        01:47:13 01:47:25  8:12 
   10    71  1156 Scott Kemp                  40 Albany GA            01:47:49 01:47:54  8:14 
   11    74  1423 Ken Veilands                44 Albany GA            01:48:02 01:48:16  8:16 
   12    79  1238 Carsten Schmalfuss          42 Gainesville FL       01:49:43 01:49:49  8:23 
   13    84  1124 Crispin Henry               41 Atlanta GA           01:50:22 01:51:05  8:29 
   14    95  1198 Mike Murgas                 43 Dallas TX            01:53:21 01:53:31  8:40 
   15    96  1174 Chris Marcella              41 Perry GA             01:52:32 01:53:47  8:41 
   16    97  1384 Gregory Koenig              43 Kathleen GA          01:52:32 01:53:48  8:41 
   17   101  1243 David Shane                 44 Lakeland FL          01:53:54 01:54:32  8:45 
   18   124  1408 Bradley Peters              40 Marietta GA          01:57:00 01:57:04  8:56 
   19   128  1461 Scott Kriscovich            41 Marietta GA          01:57:15 01:57:32  8:58 
   20   144  1215 Mark Pickett                43 Albany GA            02:00:24 02:01:05  9:15 
   21   161  1370 Edward Hellman              41 Tifton GA            02:04:44 02:05:24  9:35 
   22   192  1196 Stacey Mullis               41 Albany GA            02:12:45 02:12:59 10:09 
   23   212  1290 Pete Vinton                 43 Kingsville MD        02:15:45 02:16:14 10:24 
   24   215  1298 Rick Watchorn               44 Eatonton GA          02:17:09 02:17:25 10:29 
   25   243  1462 Jeff Hopkins                44 Ashburn VA           02:22:46 02:23:46 10:59 
 FEMALE AGE GROUP:  40 - 44
Place O'All No.   Name                       Age City,st              Chiptime Guntime  Pace  
===== ===== ===== ========================== === ==================== ======== ======== ===== 
    1    41  1231 Sandra Riggin               44 Sautee GA            01:43:52 01:43:53  7:56 
    2   110  1020 Tammy Bentley               44 Thomaston GA         01:55:24 01:56:10  8:52 
    3   118  1302 Sherri Welch                42 Hahira GA            01:56:37 01:56:53  8:55 
    4   138  1181 Melodie McGlamory           40 Abbeville GA         01:59:45 02:00:20  9:11 
    5   139  1279 Jennifer Thornton           42 St. Cloud FL         01:59:58 02:00:25  9:12 
    6   164  1308 Mandy White                 41 Valdosta GA          02:05:29 02:05:55  9:37 
    7   200  1385 Lisa Lanier                 42 Albany GA            02:14:04 02:15:08 10:19 
    8   207  1361 Julie Fox                   40 Albany GA            02:14:13 02:15:16 10:20 
    9   219  1010 Gretchenn Anglin            40 Longview TX          02:17:25 02:18:40 10:35 
   10   221  1429 Lynne Williamson            41 Waverly Hall FM      02:18:03 02:18:51 10:36 
   11   225  1147 Kim Johnson                 44 Piedmont SC          02:18:51 02:19:31 10:39 
   12   231  1234 Laura Rose                  42 Macon GA             02:20:07 02:20:17 10:43 
   13   251  1194 Sherri Moody                43 Zebulon GA           02:26:15 02:26:57 11:13 
   14   284  1396 Dawn McFarland              42 Kinsey AL            02:38:01 02:38:43 12:07 
   15   298  1026 Sharon Blok                 44 Marietta GA          02:43:02 02:43:38 12:30 
   16   300  1145 Lori Jenkins                40 Albany GA            02:44:02 02:44:32 12:34 
   17   301  1441 Caree Elder                 44 Albany GA            02:44:03 02:44:32 12:34 
   18   302  1291 Anna Wade                   40 Leesburg GA          02:44:02 02:44:32 12:34 
   19   305  1269 Colleen Sullivan            40 Albany FL            02:44:24 02:45:19 12:37 
   20   308  1141 Sheryl Jackson              40 Valdosta GA          02:45:46 02:45:57 12:40 
   21   312  1036 Michelle Budd               44 Suwanee GA           02:46:32 02:47:38 12:48 
   22   314  1267 Lelsy Stewart               43 Ely NV               02:48:32 02:48:38 12:52 
   23   353  1241 Donna Segelken              41 Bonaire GA           03:02:08 03:02:33 13:56 
   24   357  1237 Connie Schauer              44 Leesburg GA          03:05:27 03:06:17 14:13 
   25   359  1127 Nancy Hilliard              44 Camilla GA           03:06:15 03:07:05 14:17 
   26   374  1155 Cindy Kelley                44 Cleveland TN         03:15:17 03:16:05 14:58 
   27   376   351 Kim Wilbanks                42 Albany GA            03:20:58 03:20:58 15:20 
   28   382  1352 Carolyn Deeb                43 Orlando FL           03:24:32 03:25:02 15:39 
 MALE AGE GROUP:  45 - 49
Place O'All No.   Name                       Age City,st              Chiptime Guntime  Pace  
===== ===== ===== ========================== === ==================== ======== ======== ===== 
    1     6  1337 Ronald Argabright           45 Huber Heights OH     01:25:34 01:27:42  6:42 
    2     8  1320 Mark Wood                   45 Pleasant Grove AL    01:29:16 01:29:22  6:50 
    3    25  1247 Cheyenne Singletary         46 Eastman GA           01:38:48 01:38:51  7:33 
    4    28  1350 John Cobis                  49 Columbus GA          01:39:19 01:39:42  7:37 
    5    49  1407 Steven Perdue               49 Gray GA              01:44:59 01:45:06  8:02 
    6    53  1459 John Gordon                 46 Birmingham AL        01:45:24 01:45:31  8:03 
    7    75  1445 Lee Humphrey                47 Flat Rock NC         01:48:44 01:49:14  8:21 
    8    85  1433 John Winn Iii               48 Columbus GA          01:50:47 01:51:10  8:29 
    9   113  1395 David Mayer                 47 Phenix City AL       01:55:42 01:56:29  8:54 
   10   114  1018 William Barnes              47 Fayetteville GA      01:55:45 01:56:31  8:54 
   11   143  1397 Stephen Middleton           45 Albany GA            02:00:39 02:00:55  9:14 
   12   147  1401 Hayes Morris                48 Lynn Haven FL        01:59:41 02:02:17  9:20 
   13   185  1467 Bob Gailey                  48 Gainesville FL       02:10:37 02:11:35 10:03 
   14   194  1319 Brian Wood                  48 Mountain Brook AL    02:13:18 02:13:57 10:14 
   15   204  1339 Ripley Bell                 47 Albany GA            02:14:36 02:15:13 10:19 
   16   211  1383 Butch Knight                45 Leesburg GA          02:15:59 02:16:10 10:24 
   17   235  1079 Peter Donnan                47 Albany GA            02:20:17 02:20:45 10:45 
   18   236  1080 Paul Donnan                 45 Albany GA            02:20:19 02:20:45 10:45 
   19   237  1019 Rick Barry                  46 Tavares FL           02:20:07 02:20:55 10:46 
   20   288  1095 Jim Fallon, Sr.             47 Americus GA          02:39:13 02:39:57 12:13 
   21   303  1371 John Hemken                 49 Manitowoc WI         02:44:27 02:44:34 12:34 
   22   321  1098 Timothy Few                 48 Tallahassee FL       02:50:08 02:50:49 13:02 
   23   346  1122 Darryl Hawkins              45 Americus GA          02:58:03 02:58:21 13:37 
 FEMALE AGE GROUP:  45 - 49
Place O'All No.   Name                       Age City,st              Chiptime Guntime  Pace  
===== ===== ===== ========================== === ==================== ======== ======== ===== 
    1    45  1400 Diane Morris                49 Lynn Haven FL        01:44:14 01:44:52  8:00 
    2    93  1140 Deborah Jack                49 Leesburg GA          01:52:37 01:52:51  8:37 
    3   106  1109 Leslie Graham               45 Alexandria VA        01:54:46 01:55:35  8:50 
    4   125  1114 Jodi Harbin                 45 Valdosta GA          01:56:41 01:57:07  8:57 
    5   169  1262 Ada Steele                  48 Valdosta GA          02:06:44 02:07:09  9:43 
    6   174  1355 Sarah Donnan                48 Albany GA            02:08:51 02:09:17  9:52 
    7   188  1377 Sharon Hutt                 47 Dothan AL            02:10:57 02:11:52 10:04 
    8   193  1225 Jean Ramirez                45 Albany GA            02:13:19 02:13:56 10:14 
    9   198  1420 Kelly Taylor                45 Peachtree City GA    02:13:52 02:14:25 10:16 
   10   210  1146 Sue Johannsen               45 Saint Simons Island  02:15:34 02:16:08 10:24 
   11   222  1358 Shirley Fisher              48 Warner Robins GA     02:18:26 02:18:53 10:36 
   12   254  1071 Caryl Deems                 45 Byron GA             02:28:33 02:28:47 11:22 
   13   264  1013 Lisa-Jan Bailey             49 Thomasville GA       02:32:08 02:32:24 11:38 
   14   282  1449 Nicole Brueder              48 Dawson GA            02:37:58 02:38:12 12:05 
   15   290  1413 Marcia Ritter               48 Atlanta GA           02:40:04 02:40:38 12:16 
   16   292  1187 Patti Miller                45 Warner Robins GA     02:40:21 02:41:37 12:20 
   17   324  1024 Kyle Bice                   45 Kennesaw GA          02:50:17 02:51:23 13:05 
   18   337  1085 Corinne Dukes               48 Winter Garden FL     02:55:12 02:55:39 13:25 
   19   361  1315 Charlie Williams            49 Albany GA            03:08:04 03:08:32 14:24 
   20   363  1002 Gwendolyn Favors            45 Albany GA            03:10:31 03:10:50 14:34 
   21   364  1280 Cheryl Tolliver             48 Albany GA            03:10:33 03:10:50 14:34 
   22   370  1004 Sabrina Powell              45 Albany GA            03:11:59 03:12:17 14:41 
   23   372  1221 Carol Pressley              46 Leesburg GA          03:13:24 03:13:38 14:47 
   24   378  1100 Hattie Ford                 49 Albany GA            03:21:09 03:21:26 15:23 
   25   379  1102 Connie Fulmer               49 Cleveland TN         03:21:30 03:22:19 15:27 
   26   387  1292 Annie Walker                46 Albany GA            03:27:01 03:27:33 15:51 
  MALE AGE GROUP:  50 - 54
Place O'All No.   Name                       Age City,st              Chiptime Guntime  Pace  
===== ===== ===== ========================== === ==================== ======== ======== ===== 
    1    39  1364 Kevin Gowen                 50 Midland GA           01:42:35 01:42:40  7:50 
    2    56  1044 Leroy Bynum, Jr.            51 Albany GA            01:45:48 01:46:01  8:06 
    3    58  1037 Randy Bukas                 52 Germantown OH        01:46:21 01:46:28  8:08 
    4    60  1431 Robert Willingham           50 Columbus GA          01:46:28 01:46:38  8:09 
    5    61  1066 Randy Daniels               51 Culloden GA          01:46:41 01:46:48  8:09 
    6   102  1360 David Foster                54 Columbus GA          01:54:32 01:54:38  8:45 
    7   105  1227 Brian Reaves                51 Alexandria VA        01:54:46 01:55:35  8:50 
    8   129  1398 Joseph Mixon                54 Phenix City AL       01:57:15 01:57:41  8:59 
    9   134  1378 Robert James                53 Leesburg GA          01:58:48 01:59:22  9:07 
   10   163  1460 John Burkus                 54 Columbus GA          02:05:13 02:05:36  9:35 
   11   168  1106 Ted Glazier                 54 Newnan GA            02:06:16 02:06:53  9:41 
   12   178  1338 James Baker                 51 St. Petersburg FL    02:10:01 02:10:25  9:57 
   13   189  1009 James Altman                50 Plymouth MN          02:11:46 02:11:57 10:04 
   14   197  1273 Philip Taylor               51 Peachtree City GA    02:13:52 02:14:25 10:16 
   15   206  1167 James Lindsey               54 Albany GA            02:14:35 02:15:14 10:19 
   16   258  1394 Weiner Marthone             51 Leesburg GA          02:30:59 02:31:46 11:35 
   17   289  1093 Wylie Estes                 54 Valdosta GA          02:39:41 02:40:15 12:14 
   18   307  1219 Leotis Polite               50 Albany GA            02:44:54 02:45:29 12:38 
   19   319  1351 Tom Dawson                  50 Hawkinsville GA      02:47:12 02:50:01 12:59 
   20   343  1137 Elbert Hurst                53 Thomasville GA       02:57:00 02:57:43 13:34 
   21   373  1435 Paul Woodall                50 Slyvester GA         03:15:40 03:16:03 14:58 
 FEMALE AGE GROUP:  50 - 54
Place O'All No.   Name                       Age City,st              Chiptime Guntime  Pace  
===== ===== ===== ========================== === ==================== ======== ======== ===== 
    1    44  1176 Joan Mathews                51 Maumee OH            01:44:12 01:44:18  7:58 
    2    48  1148 Diane Johnson               53 Doerun GA            01:44:56 01:45:00  8:01 
    3   100  1440 Mary Ganz                   51 Atlanta GA           01:53:30 01:54:02  8:42 
    4   141  1336 Deborah Ansley              51 Cairo GA             02:00:23 02:00:27  9:12 
    5   151  1035 Debbie Bruner               50 Leesburg GA          02:02:47 02:03:24  9:25 
    6   156  1368 Robin Hayter                53 Neptune Beach FL     02:03:47 02:04:31  9:31 
    7   162  1005 Shelia Ratliff              51 Leesburg GA          02:05:15 02:05:30  9:35 
    8   172  1454 Barbara Galloway            54 Sunny Spgs GA        02:07:46 02:08:42  9:50 
    9   186  1040 Noreen Burke                50 Panama City FL       02:10:41 02:11:35 10:03 
   10   196  1158 Diana Kirbo                 50 Bainbridge GA        02:13:31 02:14:10 10:15 
   11   214  1099 Cynthia Finnigan            54 Atlanta GA           02:15:49 02:16:21 10:25 
   12   216  1372 Nancy Henry                 53 Donalsonville GA     02:17:42 02:17:42 10:31 
   13   217  1375 Cathy Horne                 54 Leesburg GA          02:18:05 02:18:15 10:33 
   14   230  1207 Joni Patten                 50 Dawson GA            02:19:14 02:19:49 10:40 
   15   247  1416 Barbara Sarver              52 Atlanta GA           02:24:59 02:25:32 11:07 
   16   265  1235 Linda Rushing               50 Fort Walton Beach FL 02:31:52 02:32:29 11:38 
   17   270  1007 Pam Stephens                50 Sylvester GA         02:34:11 02:34:49 11:49 
   18   280  1313 Karen Widner                52 Chestnut Mountain GA 02:37:30 02:37:35 12:02 
   19   297  1163 Patricia Kuptz              50 Williamston MI       02:42:40 02:43:26 12:29 
   20   299  1186 Vicki Merry                 50 Cantonment FL        02:43:11 02:43:56 12:31 
   21   316  1169 Cindy Ludwig                52 Peachtree City GA    02:47:54 02:48:50 12:53 
   22   317  1205 Susan Owens                 53 Albany GA            02:48:43 02:49:33 12:57 
   23   322  1426 Deb Wearne-Neurohr          50 Rio WI               02:50:26 02:50:51 13:03 
   24   325  1022 Jan Beverly                 51 Shepherd TX          02:50:35 02:51:24 13:05 
   25   328  1153 Melissa Keefe               52 Albany GA            02:51:51 02:52:35 13:10 
   26   348  1058 Paulette Cooper             52 Albany GA            02:59:19 02:59:35 13:43 
   27   368  1328 Sandra Zornes               54 Andersonville GA     03:11:54 03:12:12 14:40 
   28   369  1220 Susan Powell                51 Albany FM            03:11:58 03:12:17 14:41 
   29   380  1218 Barbara Pierce              54 Macon GA             03:23:10 03:24:02 15:34 
   30   383  1233 Alice Rodman                53 Albany GA            03:24:48 03:25:08 15:40 
   31   384  1168 Vamella Lovett              50 Albany GA            03:24:48 03:25:09 15:40 
   32   386  1330 Clara Hall                  51 Albany GA            03:27:00 03:27:32 15:50 
  MALE AGE GROUP:  55 - 59
Place O'All No.   Name                       Age City,st              Chiptime Guntime  Pace  
===== ===== ===== ========================== === ==================== ======== ======== ===== 
    1    14  1414 Gregory Rucker              55 Columbus GA          01:34:57 01:35:23  7:17 
    2    18  1335 Shelton Ansley              55 Cairo GA             01:35:52 01:35:54  7:19 
    3    22  1432 Robert Wilson               55 Columbus GA          01:37:36 01:37:42  7:28 
    4    24  1065 Art Dacosta                 56 Flowery Branch GA    01:38:11 01:38:21  7:31 
    5    30  1418 Mike Stephens               56 Columbus GA          01:39:56 01:40:02  7:38 
    6    51  1359 William Fitzgerald          58 Prospect Heights IL  01:44:32 01:45:14  8:02 
    7    63   231 Dale Nash                   57 Dothan AL            01:46:51 01:46:57  8:10 
    8    69  1023 Thomas Biblewski            57 Toledo OH            01:47:32 01:47:38  8:13 
    9    86  1087 Joe Edgecombe               58 Panama City FL       01:49:41 01:51:21  8:30 
   10   117  1365 Jimmy Hall                  57 Sylvester GA         01:56:41 01:56:52  8:55 
   11   133  1015 Bruce Baker                 59 Albany GA            01:58:53 01:59:16  9:06 
   12   137  1373 Carl Hobbs                  56 Leary GA             01:59:17 01:59:59  9:10 
   13   201  1447 Frank Turk                  59 McDonough GA         02:15:11 02:15:11 10:19 
   14   291  1266 Dave Stever                 55 Montgomery AL        02:41:03 02:41:23 12:19 
   15   295  1306 Roger White                 56 Albany GA            02:41:38 02:42:21 12:24 
   16   310  1217 Curtis Pierce               56 Macon GA             02:45:54 02:46:45 12:44 
   17   315  1403 Bob Myer                    57 Dothan AL            02:47:58 02:48:38 12:52 
   18   335  1392 Booker Marina               59 Carrollton TX        02:54:31 02:55:09 13:22 
   19   342  1116 Ed Hardison                 56 Albany GA            02:56:23 02:57:19 13:32 
 FEMALE AGE GROUP:  55 - 59
Place O'All No.   Name                       Age City,st              Chiptime Guntime  Pace  
===== ===== ===== ========================== === ==================== ======== ======== ===== 
    1    67  1451 Candace Donoghue            57 Pt Pleasant Bch NJ   01:47:33 01:47:35  8:13 
    2   170  1031 Emily Braun                 58 Wilmette IL          02:07:15 02:07:39  9:45 
    3   187  1161 Marty Kirkland              55 Panama City FL       02:10:07 02:11:45 10:04 
    4   205  1183 Billie Medders              57 Sylvester GA         02:14:35 02:15:13 10:19 
    5   252  1402 Jill Myer                   58 Dothan AL            02:26:50 02:27:44 11:17 
    6   275  1173 Carol Marbury               59 Leesburg GA          02:36:33 02:36:54 11:59 
    7   327  1307 Barbara White               55 Albany GA            02:51:49 02:52:30 13:10 
    8   341  1117 Suzanne Hardison            56 Albany GA            02:56:23 02:57:19 13:32 
    9   347  1321 Chris Woodard               55 Mineral Wells WV     02:57:52 02:58:41 13:38 
   10   349  1300 Sandra Webb                 58 Albany GA            02:59:18 02:59:35 13:43 
   11   351  1274 Kathy Tefft                 58 Deland FL            03:00:22 03:00:41 13:48 
   12   375  1293 Brenda Wall                 55 Leesburg GA          03:17:07 03:17:32 15:05 
 MALE AGE GROUP:  60 - 64
Place O'All No.   Name                       Age City,st              Chiptime Guntime  Pace  
===== ===== ===== ========================== === ==================== ======== ======== ===== 
    1    19  1265 John Stephens               64 Eastman GA           01:36:03 01:36:03  7:20 
    2    76  1424 Andy Wall                   63 Midland AL           01:49:02 01:49:31  8:22 
    3   140  1249 Bill Sleep                  61 Austin TX            02:00:16 02:00:25  9:12 
    4   160  1223 Jay Pryor                   63 Dunwoody GA          02:05:09 02:05:19  9:34 
    5   171  1453 Jeff Galloway               62 Sunny Spgs GA        02:07:46 02:08:42  9:50 
    6   183  1444 Tom Hotmacher               60 Portage IN           02:10:31 02:11:25 10:02 
    7   199  1272 Bill Tanner                 61 Havana FL            02:14:06 02:14:50 10:18 
    8   256  1061 Bill Costantino             64 Jefferson GA         02:29:50 02:30:37 11:30 
    9   311  1294 Danny Wall                  64 Leesburg GA          02:47:15 02:47:24 12:47 
   10   340  1038 Terry Bullard               62 Albany GA            02:56:04 02:56:32 13:29 
   11   344  1171 Richard Mahee               60 Dover DE             02:57:19 02:58:04 13:36 
   12   385  1261 Richard Stauffer            62 Hawthorne FL         03:24:55 03:25:30 15:41 
 FEMALE AGE GROUP:  60 - 64
Place O'All No.   Name                       Age City,st              Chiptime Guntime  Pace  
===== ===== ===== ========================== === ==================== ======== ======== ===== 
    1   191  1060 Brenda Cooter               61 Grovetown GA         02:12:33 02:12:53 10:09 
    2   238  1051 Shirley Christman           61 Oak Hill VA          02:21:11 02:21:26 10:48 
    3   272  1248 Beverly Shippey             61 Edison GA            02:34:04 02:35:03 11:50 
    4   371  1108 Shirley Gortmaker           60 Sioux Falls SD       03:12:06 03:13:01 14:44 
    5   381  1260 Peggy Starbuck              60 Carlisle PA          03:23:44 03:24:45 15:38 
 MALE AGE GROUP:  65 - 69
Place O'All No.   Name                       Age City,st              Chiptime Guntime  Pace  
===== ===== ===== ========================== === ==================== ======== ======== ===== 
    1    26  1209 Charlie Patterson           65 Buford GA            01:38:55 01:38:58  7:33 
    2    91  1450 Ed Donoghue                 68 Pt Pleasant Bch NJ   01:52:23 01:52:24  8:35 
 FEMALE AGE GROUP:  65 - 69
Place O'All No.   Name                       Age City,st              Chiptime Guntime  Pace  
===== ===== ===== ========================== === ==================== ======== ======== ===== 
    1   226  1409 Mary Phillips               67 Highland NY          02:19:07 02:19:35 10:39 
    2   278  1258 Gwen Sprandel               67 Dothan AL            02:36:22 02:37:04 11:59 
    3   320  1101 Rosalyn Forsyth             65 Albany GA            02:49:40 02:50:30 13:01 
    4   366   437 Barbara Pettis              65 Columbus GA          03:12:11 03:12:11 14:40 
 MALE AGE GROUP:  70 & OVER
Place O'All No.   Name                       Age City,st              Chiptime Guntime  Pace  
===== ===== ===== ========================== === ==================== ======== ======== ===== 
    1    88  1380 Kimball Kahn                72 Perry GA             01:51:28 01:51:33  8:31 
    2   232  1059 Jacob Cooter                71 Grovetown GA         02:20:14 02:20:33 10:44 
    3   257  1049 Leonard Cato                76 Valdosta GA          02:30:01 02:30:37 11:30 
 NO AGE FEMALE AGE GROUP:  98 - 99
Place O'All No.   Name                       Age City,st              Chiptime Guntime  Pace  
===== ===== ===== ========================== === ==================== ======== ======== ===== 
    1   336  1363 Veena Gangadharan           99 Leesburg GA          02:54:31 02:55:15 13:23 
 NO AGE MALE AGE GROUP:  98 - 99
Place O'All No.   Name                       Age City,st              Chiptime Guntime  Pace  
===== ===== ===== ========================== === ==================== ======== ======== ===== 
    1    87  1354 Neel Dickey                 99 Macon GA             01:51:11 01:51:22  8:30 
    2   213  1458 Unknwn                      99                      02:15:41 02:16:18 10:24